Location: Unnamed
(42.1164°N, 2.7652°E)
Time: 21:20:09
(UTC+02:00)

ISS - Pass Details

Date: 12 May 2021
Orbit: 417 x 422 km, 51.6° (Epoch: 14 June)

Event Time Altitude Azimuth Distance (km) Brightness Sun altitude
Rises 04:23:10 0° 306° (NW) 2,374 0.0 -19.6°
Reaches altitude 10° 04:25:37 10° 323° (NW) 1,509 -0.8 -19.3°
Maximum altitude 04:28:17 21° 15° (NNE) 1,003 -1.1 -19.0°
Drops below altitude 10° 04:30:57 10° 68° (ENE) 1,508 0.0 -18.6°
Sets 04:33:24 0° 84° (E) 2,372 0.8 -18.3°
